Location: Cheyres
(46.8153°N, 6.7877°E)
Time: 20:14:42
(UTC+00:00)

AO-109 - Pass Details

Date: 06 July 2022
Orbit: 469 x 506 km, 60.7° (Epoch: 16 August)

Event Time Altitude Azimuth Distance (km) Brightness Sun altitude
Exits shadow 02:11:28 20° 207° (SSW) 1,154 ? -12.3°
Maximum altitude 02:13:51 63° 131° (SE) 543 ? -12.1°
Drops below altitude 10° 02:17:33 10° 50° (NE) 1,675 ? -11.7°
Sets 02:19:45 0° 47° (NE) 2,567 ? -11.4°
